Commit Graph

39 Commits

Author SHA1 Message Date
02ca4fed52 Add face recognition log analyzer 2026-04-17 10:17:44 +08:00
5644a5bf0b Hide internal face tracking config 2026-04-17 10:00:57 +08:00
54a28ad5c0 Aggregate gallery search by person 2026-04-16 10:41:26 +08:00
87c24bce05 Clarify face recognition semantics and API action logging 2026-04-16 09:18:27 +08:00
2ed61f5c51 Fallback face track association to shared tracker state 2026-04-16 08:22:57 +08:00
a173ea46f9 Keep suppressed face reentry from aging unknown 2026-04-15 16:59:41 +08:00
2df11fa072 Fix face alarm reentry track latch 2026-04-15 16:44:00 +08:00
68d7c9edcf Add face alarm reentry suppression 2026-04-15 16:39:02 +08:00
da36345a90 Prevent double-counting overlapping face rules 2026-04-15 16:13:45 +08:00
a3f478aa22 Suppress unknown alarms for known-leaning tracks 2026-04-15 15:30:59 +08:00
afa197fbd5 Remove legacy face alarm fallback path 2026-04-15 15:23:52 +08:00
afd428f77c Fix face track alarm aggregation ordering 2026-04-15 15:15:43 +08:00
f2141ab689 Add track-aware face alarm aggregation 2026-04-15 15:02:16 +08:00
a1b2241277 fix: parameterize face person class id 2026-04-15 14:55:34 +08:00
83a07290b1 fix: restrict face track association to persons 2026-04-15 14:49:30 +08:00
d8d1fb9331 feat: associate face results with person tracks 2026-04-15 14:36:57 +08:00
1f8ac063c4 Strengthen face recognition debug logging 2026-04-15 11:18:59 +08:00
ba4bf5339d Add face recognition debug switch 2026-04-15 11:02:18 +08:00
ee4edd2d93 Improve face alarm log explainability 2026-04-15 10:27:00 +08:00
3f1cd92580 Use luminance bands for shoe color 2026-04-14 18:10:54 +08:00
f1f0922edf Adjust shoe color sampling window 2026-04-14 17:47:45 +08:00
866ab2c27c Use bottom-third shoe color sampling 2026-04-14 17:37:03 +08:00
3a9a3bccc1 Center person shoe ROI horizontally 2026-04-14 15:46:50 +08:00
d9cbaad65d Filter out rejected shoe detections after association 2026-04-14 15:08:37 +08:00
d33cd152fa Configurable side-view shoe ratio 2026-04-14 14:38:08 +08:00
ddc99dc2a8 Tighten person-shoe shape filtering 2026-04-14 13:09:01 +08:00
6e4bca7a05 feat: consume behavior events in osd and alarm 2026-04-01 10:35:45 +08:00
0c98be39cd feat: add behavior event fusion plugin 2026-04-01 10:20:36 +08:00
f275fc0e92 feat: add temporal action recognition plugin 2026-04-01 10:17:01 +08:00
d14083c1f8 feat: add region event plugin 2026-04-01 10:08:39 +08:00
6f30513a73 feat: add behavior event frame model 2026-04-01 10:02:19 +08:00
25fc03fa91 解耦开发6 2026-01-16 20:29:32 +08:00
9642d22112 解耦开发5 2026-01-16 20:19:09 +08:00
e4a1732c69 解耦开发3完成,准备编译 2026-01-16 19:10:30 +08:00
54cbb1434e 解耦开发1阶段完成,准备编译 2026-01-16 18:33:24 +08:00
786a0b0ae9 解耦开发1 2026-01-16 18:16:25 +08:00
0a5a879418 解耦前的最后一个准备,可恢复版本 2026-01-16 17:54:10 +08:00
1e5b964a7c 规范优化4 2026-01-13 08:28:55 +08:00
4ae1ac54e1 性能优化4 2026-01-12 20:51:27 +08:00